Terminal Aerodrome Forecast
Issued by NWS Portland, OR

Home | Current Version | Previous Version | Text Only | Print | Product List | Glossary On
Versions: 1 2 3 4 5 6 7 8 9 10 11 12 13 14 15 16 17 18 19 20 21 22 23 24 25 26 27 28 29 30 31 32 33 34 35 36
000
FTUS46 KPQR 242333
TAFSLE
TAF
KSLE 242333Z 2500/2524 01007KT P6SM SKC
     FM250300 29004KT P6SM SKC
     FM250900 00000KT P6SM MIFG SKC
      TEMPO 2510/2514 3/4SM BR BKN001
     FM251600 36004KT P6SM SKC
     FM251900 02011KT P6SM SKC=

USA.gov is the U.S. government's official web portal to all federal, state and local government web resources and services.